CDT,Max TemperatureF,Mean TemperatureF,Min TemperatureF,Max Dew PointF,MeanDew PointF,Min DewpointF,Max Humidity, Mean Humidity, Min Humidity, Max Sea Level PressureIn, Mean Sea Level PressureIn, Min Sea Level PressureIn, Max VisibilityMiles, Mean VisibilityMiles, Min VisibilityMiles, Max Wind SpeedMPH, Mean Wind SpeedMPH, Max Gust SpeedMPH,PrecipitationIn, CloudCover, Events, WindDirDegrees
2013-4-1,37,30,23,21,17,14,81,62,43,30.26,30.17,30.02,10,10,10,21,13,26,0.00,0,,321
2013-4-2,40,31,21,20,17,14,84,62,40,30.37,30.30,30.26,10,10,10,21,9,26,0.00,0,,315
2013-4-3,44,31,18,23,17,11,91,60,29,30.46,30.39,30.30,10,10,10,13,6,18,0.00,0,,130
2013-4-4,58,43,27,38,28,19,75,57,38,30.27,30.13,30.02,10,10,10,21,12,25,0.00,1,,257
2013-4-5,50,41,31,28,24,19,78,55,31,30.24,30.15,30.04,10,10,10,25,8,32,0.00,2,,88
2013-4-6,63,49,35,50,36,14,93,65,37,30.02,29.74,29.57,10,9,4,30,18,37,0.12,6,Rain-Thunderstorm,201
2013-4-7,59,47,35,41,37,33,92,68,44,29.98,29.86,29.70,10,8,5,25,8,31,0.00,3,,329
2013-4-8,69,55,41,55,46,37,100,76,51,29.92,29.74,29.61,10,6,1,23,9,30,0.58,5,Rain,44
2013-4-9,48,43,37,47,44,37,100,96,92,29.94,29.88,29.82,10,5,1,28,16,36,2.70,8,Rain-Thunderstorm,54
2013-4-10,38,36,33,38,36,33,100,100,100,30.01,29.92,29.78,10,7,2,33,17,78,1.17,8,Rain-Thunderstorm,48
2013-4-11,43,39,35,43,40,36,100,96,92,29.75,29.62,29.54,10,4,1,24,12,32,0.27,8,Rain,86
2013-4-12,41,37,32,37,32,27,100,88,75,29.88,29.70,29.57,10,8,4,22,13,30,T,8,,271
2013-4-13,42,36,30,32,28,25,85,73,60,29.99,29.93,29.85,10,10,10,23,12,28,0.00,7,,286
2013-4-14,70,52,34,54,41,30,100,73,45,29.97,29.73,29.52,10,10,6,26,17,32,0.25,6,Rain,114
2013-4-15,54,46,37,52,42,34,100,80,59,30.02,29.78,29.61,10,7,0,23,10,28,0.06,6,Fog-Rain,241
2013-4-16,52,42,31,35,32,28,89,67,44,30.26,30.17,30.01,10,10,10,16,9,20,T,2,Rain,354
2013-4-17,45,42,38,44,39,33,100,85,70,30.28,30.03,29.81,10,5,1,31,13,40,2.65,8,Rain-Thunderstorm,61
2013-4-18,59,46,33,58,46,32,100,95,89,29.81,29.51,29.33,10,4,0,38,17,46,0.68,8,Fog-Rain-Snow-Thunderstorm,193
2013-4-19,37,34,30,32,29,26,92,81,70,30.00,29.62,29.48,10,8,2,33,20,41,T,8,Rain-Snow,275
2013-4-20,45,36,27,28,25,19,100,69,37,30.38,30.23,30.03,10,10,10,14,5,18,0.00,2,,281
2013-4-21,55,45,35,41,33,27,76,65,54,30.43,30.33,30.22,10,10,10,28,18,36,0.00,6,,154
2013-4-22,66,55,43,48,40,37,89,63,37,30.22,30.11,29.99,10,10,10,23,13,29,0.02,6,,176
2013-4-23,50,43,35,48,35,27,100,82,64,30.04,30.00,29.95,10,10,8,22,13,26,T,8,,328
2013-4-24,51,41,30,37,27,22,82,60,38,30.10,30.06,30.02,10,10,7,29,12,39,0.02,2,Rain,290
2013-4-25,51,42,32,39,29,20,92,62,31,30.29,30.18,30.03,10,10,10,25,12,31,T,4,Rain,262
2013-4-26,68,54,39,46,39,26,86,64,42,30.26,30.21,30.15,10,10,10,30,17,38,0.00,2,,187
2013-4-27,63,53,42,48,44,42,93,71,48,30.24,30.15,30.00,10,10,6,15,6,17,0.00,4,,174
2013-4-28,71,56,40,46,43,40,92,65,37,29.99,29.89,29.79,10,9,5,9,4,,0.00,0,,333
2013-4-29,77,63,49,60,53,44,96,73,50,29.86,29.77,29.65,10,9,6,24,12,32,0.02,3,Thunderstorm,169
2013-4-30,86,73,59,59,52,46,93,60,27,29.87,29.71,29.64,10,10,9,33,16,41,0.00,1,,198